• Processing (Info)

  • MPEC 2006-K77 : 2006 KN89

    The following Minor Planet Electronic Circular may be linked-to from your own Web pages, but must not otherwise be redistributed electronically.

    A form allowing access to any MPEC is at the bottom of this page.


    Read MPEC 2006-K76 Read MPEC 2006-K78


    M.P.E.C. 2006-K77                                Issued 2006 May 30, 14:59 UT
    
         The Minor Planet Electronic Circulars contain information on unusual
             minor planets and routine data on comets.  They are published
       on behalf of Commission 20 of the International Astronomical Union by the
              Minor Planet Center, Smithsonian Astrophysical Observatory,
                              Cambridge, MA 02138, U.S.A.
    
                      Supported in part by the Brinson Foundation
                      Supported in part by the TABASGO Foundation
                 Prepared using the Tamkin Foundation Computer Network
    
                                  MPC@CFA.HARVARD.EDU
              URL http://cfa-www.harvard.edu/iau/mpc.html  ISSN 1523-6714
    
                                       2006 KN89
    
    Observations:
         K06K89N* C2006 05 29.34004 18 56 22.11 +03 28 09.3          19.0   EK077704
         K06K89N  C2006 05 29.35162 18 56 27.37 +03 29 26.9          19.2   EK077704
         K06K89N  C2006 05 29.36373 18 56 32.86 +03 30 48.4          19.3   EK077704
         K06K89N  C2006 05 29.37535 18 56 38.17 +03 32 06.7          19.0   EK077704
         K06K89N  C2006 05 29.38709 18 56 43.43 +03 33 25.8          18.9   EK077704
         K06K89N  C2006 05 30.05636 19 02 09.81 +04 50 19.6                 EK077J95
         K06K89N  C2006 05 30.05809 19 02 10.67 +04 50 32.2                 EK077J95
         K06K89N  C2006 05 30.05980 19 02 11.52 +04 50 43.4                 EK077J95
         K06K89N  C2006 05 30.06188 19 02 12.50 +04 50 58.6                 EK077J95
         K06K89N  C2006 05 30.06511 19 02 14.05 +04 51 22.1          18.9 R EK077J95
         K06K89N  C2006 05 30.23600 19 03 39.34 +05 12 54.5          19.0 R EK077I77
         K06K89N  C2006 05 30.23756 19 03 40.13 +05 13 05.8          19.0 R EK077I77
         K06K89N  C2006 05 30.23913 19 03 40.82 +05 13 17.3          19.0 R EK077I77
         K06K89N  C2006 05 30.24069 19 03 41.53 +05 13 28.3          18.7 R EK077I77
         K06K89N 2C2006 05 30.29024 19 04 09.34 +05 18 28.8          17.9 R EK077H06
         K06K89N 2C2006 05 30.29633 19 04 12.31 +05 19 12.3          17.8 R EK077H06
         K06K89N  C2006 05 30.32074 19 04 24.63 +05 22 10.0          18.6 R EK077854
         K06K89N  C2006 05 30.33134 19 04 29.87 +05 23 26.5          18.9 R EK077854
         K06K89N 5C2006 05 30.36823 19 04 48.37 +05 27 52.1          18.4 R EK077673
         K06K89N 5C2006 05 30.37402 19 04 51.25 +05 28 34.4                 EK077673
         K06K89N 5C2006 05 30.37830 19 04 53.35 +05 29 05.4                 EK077673
         K06K89N 5C2006 05 30.38293 19 04 55.62 +05 29 38.9                 EK077673
    
    Observer details:
    673 Table Mountain Observatory, Wrightwood.  Observer J. Young.  0.61-m f/16
        Cassegrain + CCD.
    704 Lincoln Laboratory ETS, New Mexico.  Observers M. Bezpalko, L. Manguso,
        D. Torres, R. Kracke, M. Blythe, H. Love, G. Spitz.  Measurers J. Stuart,
        J. Kommers.  1.0-m f/2.15 reflector + CCD.
    854 Sabino Canyon Observatory, Tucson.  Observer J. E. McGaha.  0.36-m f/10.0
        Schmidt-Cassegrain + CCD.
    H06 New Mexico Skies Observatory.  Observer R. Hutsebaut.  0.25-m reflector
        + CCD.
    I77 CEAMIG-REA Observatory, Belo Horizonte.  Observers C. Jacques, E. Pimentel.
        Measurer C. Jacques.  0.30-m f/3.0 Schmidt-Cassegrain + CCD.
    J95 Great Shefford.  Observer P. Birtwhistle.  0.40-m f/6.0 Schmidt-Cassegrain
        + CCD.
    
    Orbital elements:
    2006 KN89                                           PHA, Earth MOID = 0.0234 AU
    Epoch 2006 Mar. 6.0 TT = JDT 2453800.5                  MPC
    M 300.70610              (2000.0)            P               Q
    n   0.41749961     Peri.  108.74719     +0.82768959     +0.55787722
    a   1.7729589      Node   217.41145     -0.54519948     +0.77367190
    e   0.5266431      Incl.    5.74850     -0.13299425     +0.30034115
    P   2.36           H   21.3           G   0.15           U   8
    Residuals in seconds of arc
    060529 704  0.7-  0.4+    060530 J95  0.1+  0.3-    060530 854  0.4-  0.5+
    060529 704  0.4-  0.1+    060530 J95  0.2-  0.3+    060530 854  0.1-  0.1+
    060529 704  0.1-  0.1+    060530 I77  0.5+  0.1-    060530 673  0.4-  0.1+
    060529 704  0.7+  0.1+    060530 I77  1.1+  0.0     060530 673  0.0   0.3+
    060529 704  0.1-  0.0     060530 I77  0.0   0.2+    060530 673  0.1-  0.1+
    060530 J95  0.2-  0.1-    060530 I77  0.6-  0.0     060530 673  0.3-  0.0
    060530 J95  0.2+  0.2+    060530 H06  0.2-  0.6+
    060530 J95  0.5+  0.7-    060530 H06  0.6-  0.0
    
    Ephemeris:
    2006 KN89                a,e,i = 1.77, 0.53, 6                   q = 0.8392
    Date    TT    R. A. (2000) Decl.     Delta      r     Elong.  Phase     V
    2006 05 25    18 27.37   -03 23.2    0.174    1.154   141.5    33.1    19.2
    2006 05 27    18 39.54   -00 30.9    0.160    1.139   139.0    35.7    19.1
    2006 05 29    18 53.70   +02 51.0    0.147    1.123   135.7    39.1    18.9
    2006 05 31    19 10.32   +06 46.5    0.135    1.108   131.5    43.3    18.8
    2006 06 02    19 29.97   +11 17.8    0.124    1.093   126.4    48.4    18.8
    2006 06 04    19 53.27   +16 22.7    0.116    1.077   120.2    54.5    18.8
    2006 06 06    20 20.83   +21 52.1    0.110    1.063   113.0    61.5    18.8
    2006 06 08    20 53.02   +27 26.8    0.107    1.048   105.2    69.1    19.0
    2006 06 10    21 29.70   +32 40.0    0.106    1.034    97.1    77.1    19.2
    2006 06 12    22 09.83   +37 04.3    0.108    1.019    89.1    84.8    19.5
    2006 06 14    22 51.43   +40 21.1    0.113    1.006    81.8    91.8    19.8
    2006 06 16    23 32.07   +42 27.0    0.120    0.992    75.3    98.0    20.2
    2006 06 18    00 09.67   +43 31.3    0.129    0.979    69.8   103.1    20.6
    2006 06 20    00 43.02   +43 49.2    0.139    0.966    65.3   107.2    21.0
    2006 06 22    01 11.84   +43 36.0    0.151    0.954    61.7   110.3    21.3
    2006 06 24    01 36.46   +43 03.9    0.164    0.942    58.8   112.7    21.6
    
    Timothy B. Spahr             (C) Copyright 2006 MPC           M.P.E.C. 2006-K77
    

    Read MPEC 2006-K76 Read MPEC 2006-K78


    MPEC number:

    Enter an MPEC number in one of the following forms:

    • 1997-B01 (the full form)
    • J97B01 (the packed version of the full form)
    • B01 (the abbreviated form)